WMKA

Details ICAO WMKA (AOR)
Name Alor Setar Sultan Abdul Halim
Region Malaysia (Peninsular Malaysia)
Timezone Asia/Kuala_Lumpur (UTC+8.0)
Plans Departing 28
Arriving 37
Stats Elevation 15 ft / 5 m (AMSL)
Location 6.189666° 100.398184°
Runways 1
Magnetic Variation 0.223° W
Sunrise 2018-05-24 23:03:40 UTC / 2018-05-25 07:03:40 Local
Sunset 2018-05-25 11:29:50 UTC / 2018-05-25 19:29:50 Local
Advertisement - Login to hide

Runways

ID Width Length Bearing (true) Bearing (mag) Surface Threshold Offset Overrun Length
04 151 ft / 46 m 9,029 ft / 2,752 m 42.31° 42.53° Asphalt 0 ft / 0 m 60 ft / 18 m
22 151 ft / 46 m 9,029 ft / 2,752 m 222.32° 222.54° Asphalt 0 ft / 0 m 0 ft / 0 m

Approach Navaids

Runway Type Ident Frequency Range Bearing (true) Bearing (mag) Slope Elevation
04 Localiser IAS 111.70 MHz 18 nm / 33 km 42.47° 42.69° - 15 ft / 5 m (AMSL)
04 Glidescope IAS 111.70 MHz 10 nm / 19 km 42.31° 42.54° 3.00° 15 ft / 5 m (AMSL)

Map

Weather


0- 5 10 15 20 25 30 35+ Temperature / ° C

Clouds and Precipitation
Forecast for 2018-05-25 06:00 UTC. Updated 10 minutes ago

Ground ~20,000 ft ~40,000 ft Winds

METAR

WMKA 250500Z 06005KT 340V150 9999 SCT020 SCT140 BKN280 33/27 Q1007

TAF

Not found

Frequencies

Ground 121.60 MHz ALOR STAR GND
Approach 122.30 MHz ALOR STAR APP
Tower 122.30 MHz ALOR STAR TWR
Warning: Do not use this data for real-world aviation or navigation. No guarantee of current accuracy is given.